Theta_e
303 304 301 295 292 294 292 290 298 293 290 289 295 295 288 282 282 289 291 291 287 289 291 291 292 293 295 295 295 295 295 294 294 293 292 291 290 290 290 289 288 287 287 287
290 296 289 290 293 290 288 285 289 283 295 287 281 292 293 288 280 281 282 282 284 288 291 291 291 291 291 292 292 293 293 292 291 290 290 289 288 287 286 286 288 289 287 285
288 294 290 287 284 285 286 280 290 295 292 288 291 285 280 283 279 281 285 286 284 285 291 291 291 291 290 290 291 290 291 291 290 289 288 288 287 288 288 288 287 285 284 283
287 288 285 289 281 282 286 281 278 284 288 281 281 281 279 277 279 282 281 288 287 289 290 292 292 291 290 289 289 289 288 288 288 288 287 287 287 286 286 285 285 283 283 282
287 288 291 295 296 290 288 289 283 282 280 280 283 283 284 287 279 278 277 290 288 288 290 291 290 290 289 288 288 288 287 287 286 286 286 285 284 284 284 283 282 282 282 282
285 291 291 291 297 293 285 289 288 280 282 283 280 283 284 283 278 284 291 290 288 290 291 290 290 288 287 286 286 286 286 286 285 285 285 284 284 283 281 281 281 281 281 281
292 286 291 291 292 290 291 289 288 283 281 277 283 282 282 280 282 288 290 291 290 290 289 289 289 287 285 285 285 286 285 285 284 284 284 283 281 281 281 281 281 281 281 281
292 293 291 292 292 293 288 289 288 286 283 282 282 282 282 284 283 285 285 287 289 289 288 289 287 286 284 284 285 285 285 284 283 282 281 281 281 280 280 280 280 280 280 280
290 291 286 285 286 286 286 286 286 284 284 282 283 284 285 284 284 285 286 286 287 288 288 287 286 285 284 285 285 284 283 282 281 281 280 280 280 279 279 279 280 280 279 279
287 287 283 284 283 283 284 284 283 283 284 282 279 280 280 280 280 281 283 284 288 288 286 284 285 285 285 284 284 283 281 281 281 279 279 279 279 278 279 279 279 279 279 279
284 279 280 280 281 280 280 279 280 280 278 277 275 276 276 276 278 278 276 278 283 285 284 283 282 282 282 283 282 281 279 279 278 278 279 278 278 278 278 278 279 279 279 279
285 278 278 278 277 277 277 278 276 275 273 273 272 272 273 273 273 273 272 273 275 276 277 277 277 278 277 278 278 278 277 277 277 277 277 277 277 277 278 278 279 279 279 279
277 276 277 277 275 274 275 275 273 271 270 268 269 270 270 271 271 271 270 271 271 271 272 273 273 273 273 274 275 275 275 276 276 277 276 276 277 277 277 278 279 280 280 280
273 273 277 275 274 272 272 272 271 270 269 269 269 270 270 269 269 269 269 270 270 271 271 271 272 272 273 273 273 273 273 274 275 276 277 276 276 277 277 277 277 277 278 278
271 272 272 272 271 270 269 269 268 266 266 267 268 268 269 268 268 268 269 270 270 270 270 270 270 270 271 271 272 272 272 272 273 274 275 276 276 276 276 276 276 275 275 276
267 267 267 266 266 267 265 266 265 262 265 266 267 268 268 268 268 268 268 269 269 269 269 270 270 270 270 270 270 271 271 272 273 273 274 275 275 275 275 275 275 275 275 275
266 266 266 265 265 261 262 264 264 264 266 266 267 267 267 267 267 267 267 268 269 269 269 269 270 270 270 270 270 270 270 271 273 272 273 274 274 274 274 274 274 274 274 274
266 266 267 264 261 261 262 266 266 267 267 266 267 267 267 266 266 266 266 267 268 268 268 269 270 269 269 269 270 270 271 271 271 271 271 271 272 272 273 273 273 273 273 273
268 267 267 267 267 267 267 267 267 266 266 266 266 266 266 265 265 266 266 267 266 266 267 268 268 267 268 268 270 270 270 270 270 270 271 271 271 271 271 270 270 270 270 269
266 267 267 267 267 267 266 267 266 266 266 266 265 265 265 265 264 264 265 265 266 265 267 267 266 266 266 267 268 269 269 269 269 268 269 268 268 267 267 267 267 267 267 267
266 266 265 265 265 265 264 265 264 265 266 265 265 265 265 264 264 264 264 264 264 265 267 267 266 266 266 267 268 268 267 267 267 266 266 265 265 265 265 265 265 265 265 265
266 265 265 265 264 264 263 263 263 263 264 265 264 264 264 264 264 264 263 263 264 265 266 266 266 266 268 267 267 267 266 265 265 264 264 264 263 263 263 263 263 263 263 263
266 265 265 264 263 263 263 263 264 264 265 265 264 264 264 264 264 264 263 263 264 265 266 265 266 267 268 266 265 264 264 263 263 263 263 263 262 262 262 262 262 262 262 262
265 264 264 263 263 263 262 263 263 263 264 263 263 264 264 264 264 263 263 263 264 265 266 264 266 267 265 265 263 263 263 263 263 263 263 262 262 262 262 262 262 262 261 261
265 264 263 263 262 262 263 263 263 263 263 263 263 264 264 263 263 263 264 264 264 265 264 264 265 266 265 263 263 263 263 263 262 262 263 263 262 262 262 261 261 261 261 261
264 264 264 264 263 263 263 263 263 263 263 263 263 263 263 263 263 264 264 264 264 264 264 263 263 263 263 263 263 263 263 262 262 262 262 262 262 262 262 261 261 261 260 260
264 265 265 264 264 264 264 263 263 263 263 263 262 262 263 263 264 264 264 263 263 263 263 263 262 262 262 262 262 262 262 262 262 262 262 262 262 261 261 261 260 260 260 260
Wind_Speed
3 2 2 4 5 6 7 5 6 5 7 7 10 9 5 4 3 2 4 4 5 4 3 4 5 10 14 16 18 19 21 23 24 24 25 25 24 24 22 21 19 17 14 12
5 4 3 4 9 6 3 1 6 2 11 5 2 2 2 5 4 4 5 6 6 5 5 6 10 13 12 19 20 23 25 24 23 24 24 24 23 22 21 20 17 15 13 12
5 5 5 5 8 6 3 3 6 5 7 3 4 5 5 6 6 6 6 6 6 7 13 11 13 17 17 20 22 23 25 25 25 26 25 23 22 21 19 18 16 13 12 15
3 4 2 7 3 4 6 4 3 3 3 4 4 4 4 5 4 7 6 5 7 10 11 13 13 16 20 21 21 22 21 22 23 23 22 21 21 20 18 16 14 15 17 15
3 2 7 2 2 3 5 5 3 4 2 3 2 2 4 1 3 5 5 5 11 17 14 14 15 16 19 21 21 21 21 23 24 24 23 21 18 17 16 15 16 18 16 15
2 4 6 4 1 3 4 4 3 5 1 0 3 3 4 5 3 4 6 10 13 16 17 16 16 17 21 21 22 22 23 24 22 21 21 19 17 13 14 18 16 15 14 14
3 3 7 3 3 2 4 5 1 3 1 2 1 4 4 5 7 13 18 20 18 17 18 22 19 20 23 23 24 24 23 22 20 18 16 13 13 15 16 16 15 15 15 14
3 4 8 2 2 5 3 3 5 2 1 1 4 6 5 7 8 16 19 22 23 20 20 20 22 24 23 24 25 23 20 18 16 14 13 14 14 14 15 15 15 16 15 14
8 5 3 5 8 3 3 4 2 2 2 2 3 3 8 9 10 17 22 25 26 22 22 21 23 26 23 25 25 21 19 18 16 15 14 14 14 15 14 15 16 16 15 14
4 3 3 4 5 4 5 5 2 4 3 5 5 8 9 10 12 18 21 22 23 19 19 22 25 27 25 25 24 23 21 20 17 17 16 15 15 15 16 17 18 18 16 14
0 3 2 2 5 4 5 6 6 8 8 7 6 8 8 9 12 16 19 21 16 13 15 18 23 26 19 18 21 20 18 17 17 16 14 14 15 16 17 17 17 16 16 14
5 2 4 3 4 7 7 8 8 7 7 11 9 6 9 9 13 15 19 20 17 12 8 4 7 11 9 12 13 14 14 15 16 15 14 15 14 13 12 12 12 13 13 15
4 2 3 6 8 8 5 7 9 9 7 3 13 12 10 8 13 15 20 20 18 14 10 7 5 3 2 5 7 7 10 9 11 9 14 14 14 14 14 11 8 12 15 14
3 4 5 4 2 5 6 7 8 8 10 12 13 13 13 13 15 18 18 16 15 13 13 10 7 4 3 3 3 5 6 6 8 9 11 13 12 11 10 10 12 14 11 6
4 4 4 9 7 6 7 6 5 5 9 11 12 13 11 13 14 15 16 15 12 13 14 13 11 8 5 2 2 3 5 6 7 7 9 10 10 9 10 10 10 10 10 10
3 6 6 5 4 3 3 4 4 2 5 8 11 10 10 8 11 13 14 14 15 14 13 12 11 11 8 5 4 3 3 4 6 8 9 10 9 9 11 12 13 11 10 9
3 2 2 2 1 2 1 1 1 2 4 7 9 6 8 10 12 15 16 14 10 9 10 12 15 10 6 7 5 4 4 3 5 3 1 7 10 10 10 9 9 9 10 10
4 4 4 4 4 3 2 1 2 3 3 6 7 5 7 10 11 12 14 11 8 9 12 12 13 10 9 6 7 5 4 6 7 7 5 5 8 10 11 12 10 10 9 7
3 4 3 1 3 3 4 4 3 3 3 3 5 5 5 9 9 10 10 6 11 13 12 11 11 11 10 9 11 8 6 6 6 6 5 4 2 7 6 5 3 2 2 4
2 2 1 1 1 1 5 8 7 7 5 4 6 6 5 7 8 9 8 8 8 10 10 7 11 13 12 10 11 6 7 3 2 3 6 4 4 3 2 3 4 7 9 9
6 5 3 2 4 5 6 6 6 9 9 7 7 7 7 6 7 9 9 10 11 11 9 9 12 13 15 13 10 3 2 2 2 4 6 7 7 8 9 10 10 10 12 13
8 7 6 6 7 10 10 10 11 11 10 9 8 10 11 10 9 9 9 10 10 10 10 12 10 14 17 7 4 2 0 3 6 8 10 11 11 12 12 12 13 13 14 15
8 8 7 8 9 11 12 11 10 9 9 10 11 11 10 11 10 11 12 11 10 11 6 11 12 13 3 3 3 6 8 9 10 10 10 11 11 11 12 13 14 15 17 19
9 9 9 8 9 10 11 12 9 9 9 12 13 11 9 8 10 12 12 10 11 11 10 11 11 10 5 9 10 8 8 10 11 12 13 12 12 12 15 17 19 18 18 19
10 9 8 9 9 11 12 12 12 13 12 13 11 9 11 12 12 13 12 12 12 13 14 13 14 16 20 20 17 14 15 15 15 14 16 16 14 15 16 16 18 20 20 21
11 12 12 11 13 14 15 14 15 16 15 15 15 14 15 15 13 13 13 12 14 14 17 18 18 17 17 17 19 19 17 16 16 16 18 20 20 21 20 20 22 23 24 24
14 13 14 15 16 16 14 14 16 18 16 17 19 20 17 14 16 13 15 17 18 17 18 19 18 16 16 16 17 18 18 18 18 19 21 20 19 20 22 24 25 25 24 25
Wind_Direction
294 272 182 195 184 188 193 202 188 260 206 237 224 210 233 237 283 306 315 307 305 308 277 262 224 195 187 190 190 194 190 185 183 179 173 168 167 169 171 173 174 169 167 169
312 356 127 221 232 209 224 254 293 50 279 210 298 79 221 232 235 238 258 282 291 270 271 261 236 222 211 191 190 189 185 182 178 175 174 174 171 169 172 173 180 185 177 188
263 338 332 338 227 187 186 207 165 211 245 169 188 208 230 236 217 230 243 257 277 265 253 239 236 236 221 209 196 193 187 185 188 187 184 186 184 184 183 180 175 176 193 203
243 7 345 245 183 169 187 236 245 290 231 214 199 242 236 230 203 248 242 257 273 283 271 262 258 250 232 218 208 200 198 197 198 195 189 185 183 181 178 176 181 196 204 203
138 207 300 295 171 153 137 277 213 219 268 261 276 339 337 101 206 232 217 291 295 291 268 282 265 249 230 218 212 208 203 200 197 194 187 181 180 182 182 186 202 206 206 204
96 156 234 231 70 127 125 297 355 134 178 211 20 53 262 315 291 271 270 287 280 296 264 262 253 245 224 213 209 203 203 198 191 189 187 185 186 192 207 206 205 204 202 207
202 229 285 249 233 179 101 239 351 105 157 143 60 201 255 295 289 289 288 272 270 263 257 261 252 229 213 211 207 209 201 195 191 192 193 195 201 205 209 208 205 203 204 205
168 200 271 18 77 176 192 55 77 56 74 247 258 289 286 304 305 312 307 309 282 251 250 256 249 222 210 209 212 207 200 194 192 189 199 206 208 207 207 207 205 205 205 209
180 209 65 7 103 56 51 108 54 93 321 246 280 301 324 327 321 311 304 305 301 254 247 251 238 222 208 212 210 199 193 191 195 201 208 213 210 210 211 213 214 212 212 216
98 168 155 125 89 47 51 64 13 3 342 31 343 335 327 329 326 322 317 304 297 254 235 235 228 217 215 212 205 197 195 201 203 205 205 210 215 215 216 217 217 215 217 220
95 341 67 115 70 33 45 29 25 34 27 13 359 340 333 325 339 338 334 344 332 280 258 246 232 216 208 205 198 195 203 203 206 210 206 216 221 222 220 225 228 227 229 226
223 128 136 94 77 28 48 31 33 30 8 12 11 334 340 340 341 348 350 0 8 12 21 345 233 204 189 188 194 202 209 206 211 215 214 219 222 220 218 224 226 230 233 232
137 95 73 102 77 44 55 36 61 52 35 328 4 359 1 355 0 11 13 10 21 21 32 51 78 108 195 210 206 213 228 223 221 220 226 217 213 219 221 215 227 234 232 231
77 131 121 64 95 58 74 73 79 65 45 32 20 23 23 22 24 21 12 10 17 27 33 37 45 40 1 301 251 241 246 244 243 218 223 215 214 213 214 219 235 241 233 244
39 58 100 117 102 79 73 80 60 29 14 15 27 29 29 27 22 16 16 17 16 30 34 30 27 22 8 350 299 266 257 252 245 223 207 215 216 209 211 216 232 250 259 247
59 72 68 79 84 62 88 58 79 1 10 6 12 16 22 27 29 21 18 17 14 11 22 29 27 10 6 8 358 329 297 264 257 249 235 219 214 213 228 234 238 241 245 252
89 16 73 66 49 326 335 330 329 295 341 7 0 6 19 21 24 16 10 13 22 51 23 12 8 11 359 3 1 345 327 317 329 31 64 225 227 226 230 236 238 238 239 235
132 134 141 156 177 199 260 272 338 355 334 352 359 6 10 17 1 358 3 3 30 22 23 14 31 22 30 15 354 353 341 325 320 314 306 281 262 250 246 243 243 225 199 210
105 112 98 214 235 238 250 267 304 330 325 326 340 340 357 6 4 359 3 24 12 3 5 12 5 3 359 347 335 350 344 332 320 310 290 285 85 109 128 126 134 153 231 269
152 160 163 168 113 294 289 278 280 288 301 297 319 325 335 349 348 347 354 357 347 340 336 345 354 347 332 324 326 336 328 326 109 101 62 50 36 24 336 317 303 287 288 287
218 219 222 258 287 289 291 294 297 289 279 285 282 293 288 304 325 341 341 335 326 319 326 324 324 321 326 316 298 326 90 90 39 5 350 341 326 313 305 298 292 284 280 279
218 220 242 262 278 298 309 304 299 292 263 262 280 287 282 277 288 303 323 308 316 315 311 306 318 314 311 141 144 152 176 330 329 323 316 310 303 299 296 293 287 284 285 287
219 229 256 276 287 296 303 308 312 295 256 260 291 289 283 287 280 280 290 324 313 310 317 330 317 306 316 135 25 340 324 314 308 300 300 297 292 292 295 293 289 287 291 291
220 235 258 280 289 294 294 303 296 307 281 286 291 285 279 274 277 286 295 296 304 297 305 320 304 308 164 332 335 319 304 291 289 288 293 288 278 285 291 290 287 287 290 291
233 251 264 277 280 279 289 294 296 292 288 292 283 272 271 286 278 297 301 303 300 303 306 305 298 297 297 303 303 301 299 294 287 283 286 278 275 292 294 292 288 290 293 295
247 250 264 265 269 280 284 287 283 286 288 287 285 280 278 283 275 286 290 295 298 296 295 301 305 303 295 289 289 292 291 285 281 278 284 284 280 283 284 290 297 293 290 291
261 259 266 271 268 272 272 274 272 276 283 280 277 284 281 275 284 283 289 295 292 293 297 302 308 306 297 296 294 292 289 286 282 284 288 285 280 282 284 292 294 290 288 289